Location: B�rgermoos
(47.6500°N, 9.0667°E)
Time: 16:01:37
(UTC+00:00)

Vanguard 1 - Pass Details

Date: 10 August 2021
Orbit: 652 x 3831 km, 34.3° (Epoch: 17 September)

Event Time Altitude Azimuth Distance (km) Brightness Sun altitude
Rises 07:01:26 0° 215° (SW) 3,358 12.6 26.8°
Reaches altitude 10° 07:06:46 10° 169° (S) 2,099 12.1 27.7°
Maximum altitude 07:07:09 10° 164° (SSE) 2,080 12.2 27.8°
Drops below altitude 10° 07:07:31 10° 159° (SSE) 2,075 12.2 27.9°
Sets 07:12:21 0° 111° (ESE) 3,000 13.7 28.7°
